Date String (YYYY-MM-DD hh:mm:ss) UTC,Instrument flags,absolute air pressure of the measurement (hPa),sample flow rate (lpm),inlet stack bypass flow (lpm),air temperature of the measurement (°C),ambient temperature measured by the external sensor (°C),aerosol sample conditioner tube jacket temperature (°C),OPC LED temperature (°C),internal box temperature (°C),relative humidity of the measurement (%),span deviation,mass concentration of particles derived from Lorenz-Mie calculation of OPC scattering (μg/m³),mass concentration of particles derived from Lorenz-Mie calculation of OPC scattering (μg/m³),mass concentration of particles derived from Lorenz-Mie calculation of OPC scattering (μg/m³)
DateTimeUTC,F1_M11,P_M11,Q1_M11,Q2_M11,T1_M11,T2_M11,T3_M11,T4_M11,T5_M11,U1_M11,ZSPAN_M11,X0_M11,X2_M11,X1_M11
2023-09-03 11:00:00,SystemResetWarning,0833.3,4.99,000.00,027.9,026.3,000.0,036.4,029.5,29.7,0000.0,0004.22,0002.33,0001.73
2023-09-03 11:01:00,SystemResetWarning,0833.3,5.00,000.00,028.0,026.5,000.0,036.4,029.6,29.6,0000.0,0004.38,0002.32,0001.74
2023-09-03 11:02:00,SystemResetWarning,0833.2,5.00,000.00,028.0,026.7,000.0,036.4,029.7,29.6,0000.0,0004.45,0002.30,0001.73
2023-09-03 11:03:00,SystemResetWarning,0833.3,5.00,000.00,028.1,026.8,000.0,036.4,029.7,29.5,0000.0,0004.35,0002.30,0001.74
2023-09-03 11:04:00,SystemResetWarning,0833.3,5.00,000.00,028.1,027.0,000.0,036.4,029.8,29.4,0000.0,0004.42,0002.31,0001.73
2023-09-03 11:05:00,SystemResetWarning,0833.3,4.99,000.00,028.2,027.1,000.0,036.5,029.9,29.3,0000.0,0004.55,0002.34,0001.73
2023-09-03 11:06:00,SystemResetWarning,0833.4,5.00,000.00,028.2,027.2,000.0,036.5,029.9,29.2,0000.0,0004.51,0002.33,0001.74
2023-09-03 11:07:00,SystemResetWarning,0833.4,5.01,000.00,028.2,027.3,000.0,036.5,030.0,29.1,0000.0,0004.39,0002.32,0001.74
2023-09-03 11:08:00,SystemResetWarning,0833.3,5.00,000.00,028.3,027.4,000.0,036.6,030.0,29.0,0000.0,0004.45,0002.36,0001.75
2023-09-03 11:09:00,SystemResetWarning,0833.4,5.00,000.00,028.3,027.4,000.0,036.6,030.1,29.0,0000.0,0004.27,0002.30,0001.77
2023-09-03 11:10:00,SystemResetWarning,0833.3,4.99,000.00,028.3,026.5,000.0,036.5,029.8,29.0,0000.0,0004.46,0002.28,0001.79
2023-09-03 11:11:00,SystemResetWarning,0833.3,5.00,000.00,028.2,025.1,000.0,036.5,029.5,29.2,0000.0,0004.21,0002.24,0001.80
2023-09-03 11:12:00,SystemResetWarning,0833.3,5.01,000.00,028.1,024.8,000.0,036.4,029.3,29.4,0000.0,0004.21,0002.29,0001.84
2023-09-03 11:13:00,SystemResetWarning,0833.3,5.01,000.00,028.0,024.9,000.0,036.4,029.2,29.6,0000.0,0005.03,0002.41,0001.91
2023-09-03 11:14:00,SystemResetWarning,0833.3,5.00,000.00,028.0,025.3,000.0,036.4,029.3,29.7,0000.0,0005.10,0002.47,0001.96
2023-09-03 11:15:00,SystemResetWarning,0833.3,5.00,000.00,028.0,025.6,000.0,036.4,029.4,29.7,0000.0,0005.11,0002.50,0002.00
2023-09-03 11:16:00,SystemResetWarning,0833.3,5.00,000.00,028.0,026.0,000.0,036.5,029.5,29.7,0000.0,0004.95,0002.49,0002.03
2023-09-03 11:17:00,SystemResetWarning,0833.3,5.00,000.00,028.1,026.2,000.0,036.5,029.6,29.6,0000.0,0005.20,0002.55,0002.09
2023-09-03 11:18:00,SystemResetWarning,0833.4,4.99,000.00,028.1,026.5,000.0,036.5,029.7,29.6,0000.0,0005.27,0002.59,0002.12
2023-09-03 11:19:00,SystemResetWarning,0833.4,4.99,000.00,028.1,026.7,000.0,036.5,029.8,29.6,0000.0,0005.53,0002.60,0002.15
2023-09-03 11:20:00,SystemResetWarning,0833.4,5.00,000.00,028.2,026.9,000.0,036.5,029.8,29.5,0000.0,0006.58,0002.67,0002.15
2023-09-03 11:21:00,SystemResetWarning,0833.4,5.00,000.00,028.2,027.0,000.0,036.5,029.9,29.5,0000.0,0006.47,0002.69,0002.15
2023-09-03 11:22:00,SystemResetWarning,0833.4,5.00,000.00,028.2,027.1,000.0,036.6,029.9,29.5,0000.0,0006.64,0002.75,0002.17
2023-09-03 11:23:00,SystemResetWarning,0833.4,5.00,000.00,028.3,027.2,000.0,036.6,030.0,29.4,0000.0,0006.86,0002.80,0002.17
2023-09-03 11:24:00,SystemResetWarning,0833.4,5.00,000.00,028.3,027.3,000.0,036.6,030.0,29.4,0000.0,0005.99,0002.80,0002.14
2023-09-03 11:25:00,SystemResetWarning,0833.4,5.00,000.00,028.4,027.4,000.0,036.6,030.1,29.3,0000.0,0006.00,0002.78,0002.13
2023-09-03 11:26:00,SystemResetWarning,0833.4,5.01,000.00,028.4,027.5,000.0,036.7,030.1,29.3,0000.0,0006.06,0002.85,0002.14
2023-09-03 11:27:00,SystemResetWarning,0833.3,4.99,000.00,028.4,026.7,000.0,036.6,029.9,29.3,0000.0,0006.17,0002.90,0002.15
2023-09-03 11:28:00,SystemResetWarning,0833.3,5.00,000.00,028.3,025.2,000.0,036.6,029.5,29.4,0000.0,0006.05,0002.89,0002.15
2023-09-03 11:29:00,SystemResetWarning,0833.3,5.01,000.00,028.2,024.8,000.0,036.5,029.4,29.6,0000.0,0006.12,0002.91,0002.16
2023-09-03 11:30:00,SystemResetWarning,0833.2,5.01,000.00,028.1,025.0,000.0,036.5,029.3,29.8,0000.0,0006.00,0002.92,0002.18
2023-09-03 11:31:00,SystemResetWarning,0833.3,5.00,000.00,028.1,025.3,000.0,036.5,029.4,29.9,0000.0,0004.95,0002.90,0002.20
2023-09-03 11:32:00,SystemResetWarning,0833.3,5.00,000.00,028.1,025.7,000.0,036.5,029.5,29.8,0000.0,0004.80,0002.91,0002.21
2023-09-03 11:33:00,SystemResetWarning,0833.3,5.00,000.00,028.1,026.0,000.0,036.5,029.6,29.9,0000.0,0004.60,0002.89,0002.21
2023-09-03 11:34:00,SystemResetWarning,0833.4,4.99,000.00,028.1,026.3,000.0,036.5,029.7,29.8,0000.0,0005.02,0002.86,0002.23
2023-09-03 11:35:00,SystemResetWarning,0833.4,4.99,000.00,028.1,026.5,000.0,036.5,029.8,29.7,0000.0,0005.16,0002.75,0002.23
2023-09-03 11:36:00,SystemResetWarning,0833.4,5.00,000.00,028.2,026.7,000.0,036.6,029.8,29.6,0000.0,0005.15,0002.75,0002.22
2023-09-03 11:37:00,SystemResetWarning,0833.4,5.00,000.00,028.2,026.9,000.0,036.6,029.8,29.4,0000.0,0005.20,0002.68,0002.21
2023-09-03 11:38:00,SystemResetWarning,0833.4,5.01,000.00,028.2,027.0,000.0,036.6,029.9,29.3,0000.0,0005.47,0002.62,0002.20
2023-09-03 11:39:00,SystemResetWarning,0833.4,5.00,000.00,028.3,027.2,000.0,036.6,030.0,29.3,0000.0,0005.35,0002.59,0002.19
2023-09-03 11:40:00,SystemResetWarning,0833.4,4.99,000.00,028.3,027.3,000.0,036.6,030.0,29.2,0000.0,0005.95,0002.60,0002.18
2023-09-03 11:41:00,SystemResetWarning,0833.4,5.00,000.00,028.4,027.4,000.0,036.7,030.0,29.1,0000.0,0006.71,0002.60,0002.18
2023-09-03 11:42:00,SystemResetWarning,0833.4,5.00,000.00,028.4,027.4,000.0,036.7,030.1,29.0,0000.0,0007.24,0002.58,0002.17
2023-09-03 11:43:00,SystemResetWarning,0833.4,4.99,000.00,028.4,026.6,000.0,036.7,029.9,28.9,0000.0,0007.12,0002.53,0002.17
2023-09-03 11:44:00,SystemResetWarning,0833.3,5.01,000.00,028.3,025.2,000.0,036.6,029.5,29.1,0000.0,0007.17,0002.56,0002.18
2023-09-03 11:45:00,SystemResetWarning,0833.3,5.02,000.00,028.2,024.8,000.0,036.5,029.3,29.2,0000.0,0006.79,0002.58,0002.16
2023-09-03 11:46:00,SystemResetWarning,0833.3,5.01,000.00,028.1,025.0,000.0,036.5,029.3,29.3,0000.0,0006.26,0002.60,0002.16
2023-09-03 11:47:00,SystemResetWarning,0833.3,4.99,000.00,028.1,025.3,000.0,036.5,029.4,29.4,0000.0,0006.42,0002.65,0002.19
2023-09-03 11:48:00,SystemResetWarning,0833.3,5.01,000.00,028.1,025.7,000.0,036.5,029.5,29.4,0000.0,0006.44,0002.67,0002.20
2023-09-03 11:49:00,SystemResetWarning,0833.3,5.00,000.00,028.1,026.0,000.0,036.5,029.6,29.5,0000.0,0005.89,0002.71,0002.21
2023-09-03 11:50:00,SystemResetWarning,0833.3,4.99,000.00,028.1,026.3,000.0,036.5,029.6,29.5,0000.0,0005.99,0002.75,0002.22
2023-09-03 11:51:00,SystemResetWarning,0833.4,5.00,000.00,028.1,026.5,000.0,036.6,029.7,29.4,0000.0,0005.50,0002.76,0002.24
2023-09-03 11:52:00,SystemResetWarning,0833.3,5.01,000.00,028.2,026.7,000.0,036.6,029.8,29.3,0000.0,0004.88,0002.79,0002.26
2023-09-03 11:53:00,SystemResetWarning,0833.3,5.00,000.00,028.2,026.9,000.0,036.6,029.8,29.2,0000.0,0004.50,0002.84,0002.27
2023-09-03 11:54:00,SystemResetWarning,0833.3,5.00,000.00,028.2,027.0,000.0,036.6,029.9,29.1,0000.0,0006.10,0002.94,0002.30
2023-09-03 11:55:00,SystemResetWarning,0833.3,5.00,000.00,028.3,027.1,000.0,036.6,029.9,29.1,0000.0,0006.84,0002.97,0002.31
2023-09-03 11:56:00,SystemResetWarning,0833.3,5.00,000.00,028.3,027.2,000.0,036.7,030.0,29.0,0000.0,0006.92,0002.97,0002.32
2023-09-03 11:57:00,SystemResetWarning,0833.3,5.00,000.00,028.4,027.3,000.0,036.7,030.0,28.9,0000.0,0007.10,0002.97,0002.33
2023-09-03 11:58:00,SystemResetWarning,0833.3,4.99,000.00,028.4,027.4,000.0,036.7,030.1,28.8,0000.0,0006.92,0002.94,0002.33
2023-09-03 11:59:00,SystemResetWarning,0833.3,4.99,000.00,028.4,026.6,000.0,036.7,029.9,28.7,0000.0,0006.90,0002.94,0002.35
